loading
|
Showing default

INTELSAT 2-F3, 2717

Orbit data source: Space-Track

INTELSAT 2-F3, 2717 is a payload satellite owned by INTELSAT (US) in GEO that was launched on Thu, 23 Mar 1967 UTC via a THOR DELTA E1 launch vehicle from the Air Force Eastern Test Range (AFETR). Payloads include a variety of satellites, spacecraft, and rockets equipped with specific instruments for various scientific and technological missions. These include communications satellites like Starlink; space stations such as the ISS; scientific satellites like the Hubble; Earth observation satellites from companies like Planet Labs, Umbra, and HawkEye 360; GPS; miniature CubeSats for education and research; and military/defense satellites.

Next visibility unknown
Next conjunction unknown
Loading greatness...
INTELSAT 2-F3 details
Identifier
2717, 1967-026A
Orbit
GEO
Last TLE update15 hours ago
Origin
Flag of USINTELSAT (US / ITSO)
ManufacturerHughes
MissionNon-operational Civil Communications
Bus & MotorHS-303, SVM-1
Mass163 kg wet, ~65 kg dry
Launch date (UTC)
1967-03-23 (58 years ago)
Launch vehicle
THOR DELTA E1
Launch site
Air Force Eastern Test Range (AFETR)
Object type
Payload
Rocket body
Debris
Shape & HBRCyl, 1.4 m
Radar Cross Section2.199 m², Large (>1 m²)

Expand to show TLE details & history

TLE from 15 hours ago
0 INTELSAT 2-F3
1 02717U 67026A   24285.33210160 -.00000032  00000-0  00000-0 0  9991
2 02717   2.5610  70.0088 0018527 204.3176 221.9716  1.00257159117740
Epoch: 2024-10-11T07:58Z
Definitive object data (Epoch: 2024-10-11T07:58:13.578Z)
Latitude2.32628°
Longitude-3.85661°
Altitude35,847.823 km
Speed3.07 km/s
True Right ascension09h 04m 24s
True Declination2° 19' 26"
Sunlit
Object was in daylight at TLE epoch
Predictive object data (real-time)
Latitude-2.26177°
Longitude-132.15694°
Altitude35,795.106 km
Speed3.074 km/s
Apparent Right ascension00h 56m 36s
Apparent Declination-7° 31' 36"
Sunlit
Object is in daylight
Predictive observer data (real-time)
Local Sidereal Time17:44:42
Azimuth84.197° E
Elevation-18.584°
Doppler factor1
Orbital elements
Apogee35,869.891 km
Perigee35,713.635 km
Semi-major axis42,169.9 km
Eccentricity0.0018527
Inclination2.561°
RAAN70.0088°
Arg. of periapsis204.3176°
True anomaly221.82986°
Mean anomaly221.9716°
Eccentric anomaly221.90071°
Mean motion0.25063 °/min
BSTARUnknown
Period1436.36 mins
Authenticating...
2717 neighbors
Authenticating...
No data available
No data available
Other satellites on launch #26 in the year 1967 (1967-03-23 UTC)

INTELSAT 2-F3 Visibility forecast

Observer location: 39.9160978°, -105.1181434

INTELSAT 2-F3 is not visible in the next 10 days
Span
Click to sort rows by Start time (UTC) header in descending order
Start Az.
Max El. time (UTC)
Max El. Az.
Max El.
End time (UTC)
End Az.